contact:dominique.lefevre@mio.osupytheas.fr, maurice.libes@osupytheas.fr, didier.mallarino@osupytheas.fr
Project:EMSO http://www.emso-fr.org/EMSO-France
Depth: 2436.0 m
Title:EMSO Ligure Ouest : Data MII capteur CSTAR
DateTime,Latitude,Longitude,Instrument_Serial,Reference_Counts,Signal_Counts,Corrected_Signal_raw_counts,Calculated_Beam_c_inverse_meters,Internal_thermistor_counts
DateTime,Latitude,Longitude,Instrument_Serial,Reference_Counts,Signal_Counts,Corrected_Signal_raw_counts,Calculated_Beam_c_inverse_meters,Internal_thermistor_counts
2021-10-14T00:02:58,42.805,6.029,CST-1368DR,5152,6910,14356,0.337,551
2021-10-14T00:06:00,42.805,6.029,CST-1368DR,5152,6914,14364,0.334,550
2021-10-14T00:09:01,42.805,6.029,CST-1368DR,5152,6913,14362,0.335,551
2021-10-14T00:12:03,42.805,6.029,CST-1368DR,5152,6914,14364,0.334,551
2021-10-14T00:15:04,42.805,6.029,CST-1368DR,5152,6914,14364,0.334,551
2021-10-14T00:18:06,42.805,6.029,CST-1368DR,5152,6914,14364,0.334,551
2021-10-14T00:21:07,42.805,6.029,CST-1368DR,5152,6912,14360,0.335,551
2021-10-14T00:24:09,42.805,6.029,CST-1368DR,5152,6913,14362,0.335,551
2021-10-14T00:27:11,42.805,6.029,CST-1368DR,5152,6914,14364,0.334,551
2021-10-14T00:30:12,42.805,6.029,CST-1368DR,5152,6914,14363,0.335,551
2021-10-14T00:33:14,42.805,6.029,CST-1368DR,5152,6914,14364,0.334,551
2021-10-14T00:36:15,42.805,6.029,CST-1368DR,5152,6914,14364,0.334,551
2021-10-14T00:39:17,42.805,6.029,CST-1368DR,5152,6914,14363,0.335,551
2021-10-14T00:42:19,42.805,6.029,CST-1368DR,5152,6915,14365,0.334,551
2021-10-14T00:45:20,42.805,6.029,CST-1368DR,5152,6914,14363,0.335,551
2021-10-14T00:48:22,42.805,6.029,CST-1368DR,5152,6914,14363,0.335,551
2021-10-14T00:51:23,42.805,6.029,CST-1368DR,5152,6913,14362,0.335,551
2021-10-14T00:54:25,42.805,6.029,CST-1368DR,5152,6913,14362,0.335,551
2021-10-14T00:57:26,42.805,6.029,CST-1368DR,5152,6914,14363,0.335,551
2021-10-14T01:00:28,42.805,6.029,CST-1368DR,5152,6914,14363,0.335,551
2021-10-14T01:03:30,42.805,6.029,CST-1368DR,5152,6914,14363,0.335,551
2021-10-14T01:06:31,42.805,6.029,CST-1368DR,5152,6914,14363,0.335,551
2021-10-14T01:09:33,42.805,6.029,CST-1368DR,5152,6914,14363,0.335,550
2021-10-14T01:12:34,42.805,6.029,CST-1368DR,5152,6913,14361,0.335,551
2021-10-14T01:15:36,42.805,6.029,CST-1368DR,5152,6913,14362,0.335,551
2021-10-14T01:18:37,42.805,6.029,CST-1368DR,5152,6913,14362,0.335,551
2021-10-14T01:21:39,42.805,6.029,CST-1368DR,5152,6914,14364,0.334,551
2021-10-14T01:24:41,42.805,6.029,CST-1368DR,5152,6912,14359,0.336,551
2021-10-14T01:27:42,42.805,6.029,CST-1368DR,5152,6913,14362,0.335,551
2021-10-14T01:30:44,42.805,6.029,CST-1368DR,5152,6913,14362,0.335,551
2021-10-14T01:33:45,42.805,6.029,CST-1368DR,5152,6913,14362,0.335,551
2021-10-14T01:36:47,42.805,6.029,CST-1368DR,5152,6913,14361,0.335,551
2021-10-14T01:39:49,42.805,6.029,CST-1368DR,5152,6913,14362,0.335,551
2021-10-14T01:42:50,42.805,6.029,CST-1368DR,5152,6912,14359,0.336,551
2021-10-14T01:45:52,42.805,6.029,CST-1368DR,5152,6914,14363,0.335,551
2021-10-14T01:48:53,42.805,6.029,CST-1368DR,5152,6913,14362,0.335,551
2021-10-14T01:51:55,42.805,6.029,CST-1368DR,5152,6913,14361,0.335,551
2021-10-14T01:54:56,42.805,6.029,CST-1368DR,5152,6912,14359,0.336,551
2021-10-14T01:57:58,42.805,6.029,CST-1368DR,5152,6913,14362,0.335,551
2021-10-14T02:01:00,42.805,6.029,CST-1368DR,5152,6913,14362,0.335,551
2021-10-14T02:04:01,42.805,6.029,CST-1368DR,5152,6913,14362,0.335,551
2021-10-14T02:07:03,42.805,6.029,CST-1368DR,5152,6914,14364,0.334,551
2021-10-14T02:10:04,42.805,6.029,CST-1368DR,5152,6913,14362,0.335,551
2021-10-14T02:13:06,42.805,6.029,CST-1368DR,5152,6914,14363,0.335,551
2021-10-14T02:16:08,42.805,6.029,CST-1368DR,5152,6912,14360,0.335,551
2021-10-14T02:19:09,42.805,6.029,CST-1368DR,5152,6914,14363,0.335,551
2021-10-14T02:22:11,42.805,6.029,CST-1368DR,5152,6913,14362,0.335,551
2021-10-14T02:25:12,42.805,6.029,CST-1368DR,5152,6913,14362,0.335,551
2021-10-14T02:28:14,42.805,6.029,CST-1368DR,5152,6914,14363,0.335,551
2021-10-14T02:31:15,42.805,6.029,CST-1368DR,5152,6914,14363,0.335,551
2021-10-14T02:34:17,42.805,6.029,CST-1368DR,5152,6914,14363,0.335,551
2021-10-14T02:37:19,42.805,6.029,CST-1368DR,5152,6914,14364,0.334,551
2021-10-14T02:40:20,42.805,6.029,CST-1368DR,5152,6914,14363,0.335,551
2021-10-14T02:43:22,42.805,6.029,CST-1368DR,5152,6913,14362,0.335,551
2021-10-14T02:46:23,42.805,6.029,CST-1368DR,5152,6913,14361,0.335,551
2021-10-14T02:49:25,42.805,6.029,CST-1368DR,5152,6913,14362,0.335,551
2021-10-14T02:52:26,42.805,6.029,CST-1368DR,5152,6912,14360,0.335,551
2021-10-14T02:55:28,42.805,6.029,CST-1368DR,5152,6914,14363,0.335,551
2021-10-14T02:58:30,42.805,6.029,CST-1368DR,5152,6913,14362,0.335,551
2021-10-14T03:01:31,42.805,6.029,CST-1368DR,5152,6913,14362,0.335,551
2021-10-14T03:04:33,42.805,6.029,CST-1368DR,5152,6912,14360,0.335,551
2021-10-14T03:07:34,42.805,6.029,CST-1368DR,5152,6913,14362,0.335,551
2021-10-14T03:10:36,42.805,6.029,CST-1368DR,5152,6914,14364,0.334,551
2021-10-14T03:13:38,42.805,6.029,CST-1368DR,5152,6913,14362,0.335,551
2021-10-14T03:16:39,42.805,6.029,CST-1368DR,5152,6914,14364,0.334,551
2021-10-14T03:19:41,42.805,6.029,CST-1368DR,5152,6913,14362,0.335,551
2021-10-14T03:22:42,42.805,6.029,CST-1368DR,5152,6908,14352,0.338,551
2021-10-14T03:25:44,42.805,6.029,CST-1368DR,5152,6913,14361,0.335,551
2021-10-14T03:28:45,42.805,6.029,CST-1368DR,5152,6913,14362,0.335,551
2021-10-14T03:31:47,42.805,6.029,CST-1368DR,5152,6913,14362,0.335,551
2021-10-14T03:34:49,42.805,6.029,CST-1368DR,5152,6913,14361,0.335,551
2021-10-14T03:37:50,42.805,6.029,CST-1368DR,5152,6913,14362,0.335,551
2021-10-14T03:40:52,42.805,6.029,CST-1368DR,5152,6913,14361,0.335,551
2021-10-14T03:43:53,42.805,6.029,CST-1368DR,5152,6913,14361,0.335,551
2021-10-14T03:46:55,42.805,6.029,CST-1368DR,5152,6913,14361,0.335,551
2021-10-14T03:49:56,42.805,6.029,CST-1368DR,5152,6911,14357,0.336,551
2021-10-14T03:52:58,42.805,6.029,CST-1368DR,5152,6912,14359,0.336,551
2021-10-14T03:56:00,42.805,6.029,CST-1368DR,5152,6914,14363,0.335,551
2021-10-14T03:59:01,42.805,6.029,CST-1368DR,5152,6914,14364,0.334,551
2021-10-14T04:02:03,42.805,6.029,CST-1368DR,5152,6914,14363,0.335,551
2021-10-14T04:05:04,42.805,6.029,CST-1368DR,5152,6913,14362,0.335,551
2021-10-14T04:08:06,42.805,6.029,CST-1368DR,5152,6913,14362,0.335,551
2021-10-14T04:11:08,42.805,6.029,CST-1368DR,5152,6914,14363,0.335,551
2021-10-14T04:14:09,42.805,6.029,CST-1368DR,5152,6914,14363,0.335,551
2021-10-14T04:17:11,42.805,6.029,CST-1368DR,5152,6913,14362,0.335,551
2021-10-14T04:20:12,42.805,6.029,CST-1368DR,5152,6913,14362,0.335,551
2021-10-14T04:23:14,42.805,6.029,CST-1368DR,5152,6914,14363,0.335,550
2021-10-14T04:26:15,42.805,6.029,CST-1368DR,5152,6913,14362,0.335,551
2021-10-14T04:29:17,42.805,6.029,CST-1368DR,5152,6913,14362,0.335,551
2021-10-14T04:32:19,42.805,6.029,CST-1368DR,5152,6913,14362,0.335,551
2021-10-14T04:35:20,42.805,6.029,CST-1368DR,5152,6914,14363,0.335,551
2021-10-14T04:38:22,42.805,6.029,CST-1368DR,5152,6914,14363,0.335,551
2021-10-14T04:41:23,42.805,6.029,CST-1368DR,5152,6913,14362,0.335,551
2021-10-14T04:44:25,42.805,6.029,CST-1368DR,5152,6914,14363,0.335,551
2021-10-14T04:47:27,42.805,6.029,CST-1368DR,5152,6913,14361,0.335,551
2021-10-14T04:50:28,42.805,6.029,CST-1368DR,5152,6913,14362,0.335,551
2021-10-14T04:53:30,42.805,6.029,CST-1368DR,5152,6913,14361,0.335,551
2021-10-14T04:56:31,42.805,6.029,CST-1368DR,5152,6913,14362,0.335,551
2021-10-14T04:59:33,42.805,6.029,CST-1368DR,5152,6913,14361,0.335,551
2021-10-14T05:02:34,42.805,6.029,CST-1368DR,5152,6913,14361,0.335,551
2021-10-14T05:05:36,42.805,6.029,CST-1368DR,5152,6913,14362,0.335,551
2021-10-14T05:08:38,42.805,6.029,CST-1368DR,5152,6912,14360,0.335,551
2021-10-14T05:11:39,42.805,6.029,CST-1368DR,5152,6913,14361,0.335,551
2021-10-14T05:14:41,42.805,6.029,CST-1368DR,5152,6913,14362,0.335,551
2021-10-14T05:17:42,42.805,6.029,CST-1368DR,5152,6913,14362,0.335,551
2021-10-14T05:20:44,42.805,6.029,CST-1368DR,5152,6913,14361,0.335,551
2021-10-14T05:23:46,42.805,6.029,CST-1368DR,5152,6913,14361,0.335,551
2021-10-14T05:26:47,42.805,6.029,CST-1368DR,5152,6913,14362,0.335,551
2021-10-14T05:29:49,42.805,6.029,CST-1368DR,5152,6912,14360,0.335,551
2021-10-14T05:32:50,42.805,6.029,CST-1368DR,5152,6912,14360,0.335,551
2021-10-14T05:35:52,42.805,6.029,CST-1368DR,5152,6912,14360,0.335,550
2021-10-14T05:38:53,42.805,6.029,CST-1368DR,5152,6913,14361,0.335,551
2021-10-14T05:41:55,42.805,6.029,CST-1368DR,5152,6912,14360,0.335,551
2021-10-14T05:44:57,42.805,6.029,CST-1368DR,5152,6912,14359,0.336,551
2021-10-14T05:47:58,42.805,6.029,CST-1368DR,5152,6911,14357,0.336,551
2021-10-14T05:51:00,42.805,6.029,CST-1368DR,5152,6912,14359,0.336,551
2021-10-14T05:54:01,42.805,6.029,CST-1368DR,5152,6912,14360,0.335,551
2021-10-14T05:57:03,42.805,6.029,CST-1368DR,5152,6912,14358,0.336,551
2021-10-14T06:00:04,42.805,6.029,CST-1368DR,5152,6911,14357,0.336,551
2021-10-14T06:03:06,42.805,6.029,CST-1368DR,5152,6911,14357,0.336,551
2021-10-14T06:06:08,42.805,6.029,CST-1368DR,5152,6912,14359,0.336,551
2021-10-14T06:09:09,42.805,6.029,CST-1368DR,5152,6912,14359,0.336,551
2021-10-14T06:12:11,42.805,6.029,CST-1368DR,5152,6912,14359,0.336,551
2021-10-14T06:15:12,42.805,6.029,CST-1368DR,5152,6912,14358,0.336,551
2021-10-14T06:18:14,42.805,6.029,CST-1368DR,5152,6912,14358,0.336,551
2021-10-14T06:21:16,42.805,6.029,CST-1368DR,5152,6912,14359,0.336,551
2021-10-14T06:24:17,42.805,6.029,CST-1368DR,5152,6912,14360,0.335,551
2021-10-14T06:27:19,42.805,6.029,CST-1368DR,5152,6913,14361,0.335,551
2021-10-14T06:30:20,42.805,6.029,CST-1368DR,5152,6912,14359,0.336,551
2021-10-14T06:33:22,42.805,6.029,CST-1368DR,5152,6912,14358,0.336,551
2021-10-14T06:36:23,42.805,6.029,CST-1368DR,5152,6912,14360,0.335,551
2021-10-14T06:39:25,42.805,6.029,CST-1368DR,5152,6912,14359,0.336,551
2021-10-14T06:42:27,42.805,6.029,CST-1368DR,5152,6911,14356,0.337,551
2021-10-14T06:45:28,42.805,6.029,CST-1368DR,5152,6911,14357,0.336,551
2021-10-14T06:48:30,42.805,6.029,CST-1368DR,5152,6911,14357,0.336,551
2021-10-14T06:51:31,42.805,6.029,CST-1368DR,5152,6912,14359,0.336,551
2021-10-14T06:54:33,42.805,6.029,CST-1368DR,5152,6911,14357,0.336,551
2021-10-14T06:57:34,42.805,6.029,CST-1368DR,5152,6911,14357,0.336,551
2021-10-14T07:00:36,42.805,6.029,CST-1368DR,5152,6911,14357,0.336,551
2021-10-14T07:03:38,42.805,6.029,CST-1368DR,5152,6911,14356,0.337,551
2021-10-14T07:06:39,42.805,6.029,CST-1368DR,5152,6910,14356,0.337,551
2021-10-14T07:09:41,42.805,6.029,CST-1368DR,5152,6911,14356,0.337,551
2021-10-14T07:12:42,42.805,6.029,CST-1368DR,5152,6910,14356,0.337,551
2021-10-14T07:15:44,42.805,6.029,CST-1368DR,5152,6911,14356,0.337,550
2021-10-14T07:18:46,42.805,6.029,CST-1368DR,5152,6911,14357,0.336,551
2021-10-14T07:21:47,42.805,6.029,CST-1368DR,5152,6910,14356,0.337,551
2021-10-14T07:24:49,42.805,6.029,CST-1368DR,5152,6910,14355,0.337,551
2021-10-14T07:27:50,42.805,6.029,CST-1368DR,5152,6910,14355,0.337,551
2021-10-14T07:30:52,42.805,6.029,CST-1368DR,5152,6910,14355,0.337,551
2021-10-14T07:33:53,42.805,6.029,CST-1368DR,5152,6910,14356,0.337,551
2021-10-14T07:36:55,42.805,6.029,CST-1368DR,5152,6909,14354,0.337,551
2021-10-14T07:39:57,42.805,6.029,CST-1368DR,5152,6911,14356,0.337,551
2021-10-14T07:42:58,42.805,6.029,CST-1368DR,5152,6910,14356,0.337,551
2021-10-14T07:46:00,42.805,6.029,CST-1368DR,5152,6910,14356,0.337,551
2021-10-14T07:49:01,42.805,6.029,CST-1368DR,5152,6910,14356,0.337,551
2021-10-14T07:52:03,42.805,6.029,CST-1368DR,5152,6910,14355,0.337,551
2021-10-14T07:55:05,42.805,6.029,CST-1368DR,5152,6910,14355,0.337,551
2021-10-14T07:58:06,42.805,6.029,CST-1368DR,5152,6910,14355,0.337,551
2021-10-14T08:01:08,42.805,6.029,CST-1368DR,5152,6910,14355,0.337,551
2021-10-14T08:04:09,42.805,6.029,CST-1368DR,5152,6910,14356,0.337,551
2021-10-14T08:07:11,42.805,6.029,CST-1368DR,5152,6910,14356,0.337,551
2021-10-14T08:10:12,42.805,6.029,CST-1368DR,5152,6910,14356,0.337,551
2021-10-14T08:13:14,42.805,6.029,CST-1368DR,5152,6910,14355,0.337,551
2021-10-14T08:16:16,42.805,6.029,CST-1368DR,5152,6903,14340,0.341,551
2021-10-14T08:19:17,42.805,6.029,CST-1368DR,5152,6910,14355,0.337,551
2021-10-14T08:22:19,42.805,6.029,CST-1368DR,5152,6910,14355,0.337,551
2021-10-14T08:25:20,42.805,6.029,CST-1368DR,5152,6910,14356,0.337,551
2021-10-14T08:28:22,42.805,6.029,CST-1368DR,5152,6910,14355,0.337,551
2021-10-14T08:31:23,42.805,6.029,CST-1368DR,5152,6910,14354,0.337,551
2021-10-14T08:34:25,42.805,6.029,CST-1368DR,5152,6910,14354,0.337,551
2021-10-14T08:37:27,42.805,6.029,CST-1368DR,5152,6910,14355,0.337,551
2021-10-14T08:40:28,42.805,6.029,CST-1368DR,5152,6910,14355,0.337,551
2021-10-14T08:43:30,42.805,6.029,CST-1368DR,5152,6910,14355,0.337,551
2021-10-14T08:46:31,42.805,6.029,CST-1368DR,5151,6910,14357,0.336,551
2021-10-14T08:49:33,42.805,6.029,CST-1368DR,5152,6909,14354,0.337,551
2021-10-14T08:52:35,42.805,6.029,CST-1368DR,5152,6910,14355,0.337,551
2021-10-14T08:55:36,42.805,6.029,CST-1368DR,5151,6910,14357,0.336,550
2021-10-14T08:58:38,42.805,6.029,CST-1368DR,5152,6911,14357,0.336,551
2021-10-14T09:01:39,42.805,6.029,CST-1368DR,5152,6910,14355,0.337,551
2021-10-14T09:04:41,42.805,6.029,CST-1368DR,5151,6910,14358,0.336,551
2021-10-14T09:07:42,42.805,6.029,CST-1368DR,5152,6910,14355,0.337,550
2021-10-14T09:10:44,42.805,6.029,CST-1368DR,5151,6910,14358,0.336,551
2021-10-14T09:13:46,42.805,6.029,CST-1368DR,5151,6909,14356,0.337,551
2021-10-14T09:16:47,42.805,6.029,CST-1368DR,5151,6909,14356,0.337,551
2021-10-14T09:19:49,42.805,6.029,CST-1368DR,5151,6910,14358,0.336,551
2021-10-14T09:22:50,42.805,6.029,CST-1368DR,5152,6910,14355,0.337,551
2021-10-14T09:25:52,42.805,6.029,CST-1368DR,5152,6910,14356,0.337,551
2021-10-14T09:28:53,42.805,6.029,CST-1368DR,5151,6910,14357,0.336,551
2021-10-14T09:31:55,42.805,6.029,CST-1368DR,5151,6909,14356,0.337,551
2021-10-14T09:34:57,42.805,6.029,CST-1368DR,5151,6910,14359,0.336,551
2021-10-14T09:37:58,42.805,6.029,CST-1368DR,5151,6910,14357,0.336,551
2021-10-14T09:41:00,42.805,6.029,CST-1368DR,5151,6909,14356,0.337,551
2021-10-14T09:44:01,42.805,6.029,CST-1368DR,5151,6910,14357,0.336,551
2021-10-14T09:47:03,42.805,6.029,CST-1368DR,5151,6910,14357,0.336,551
2021-10-14T09:50:05,42.805,6.029,CST-1368DR,5151,6910,14357,0.336,551
2021-10-14T09:53:06,42.805,6.029,CST-1368DR,5151,6909,14356,0.337,551
2021-10-14T09:56:08,42.805,6.029,CST-1368DR,5151,6907,14351,0.338,551
2021-10-14T09:59:09,42.805,6.029,CST-1368DR,5151,6910,14357,0.336,551
2021-10-14T10:02:11,42.805,6.029,CST-1368DR,5151,6910,14357,0.336,551
2021-10-14T10:05:12,42.805,6.029,CST-1368DR,5151,6909,14355,0.337,551
2021-10-14T10:08:14,42.805,6.029,CST-1368DR,5151,6910,14357,0.336,551
2021-10-14T10:11:16,42.805,6.029,CST-1368DR,5151,6910,14358,0.336,551
2021-10-14T10:14:17,42.805,6.029,CST-1368DR,5151,6910,14358,0.336,551
2021-10-14T10:17:19,42.805,6.029,CST-1368DR,5151,6910,14357,0.336,551
2021-10-14T10:20:20,42.805,6.029,CST-1368DR,5151,6910,14357,0.336,551
2021-10-14T10:23:22,42.805,6.029,CST-1368DR,5151,6910,14357,0.336,550
2021-10-14T10:26:24,42.805,6.029,CST-1368DR,5151,6910,14357,0.336,551
2021-10-14T10:29:25,42.805,6.029,CST-1368DR,5151,6909,14356,0.337,551
2021-10-14T10:32:27,42.805,6.029,CST-1368DR,5151,6909,14356,0.337,551
2021-10-14T10:35:28,42.805,6.029,CST-1368DR,5151,6908,14353,0.337,551
2021-10-14T10:38:30,42.805,6.029,CST-1368DR,5151,6910,14357,0.336,551
2021-10-14T10:41:31,42.805,6.029,CST-1368DR,5151,6910,14358,0.336,551
2021-10-14T10:44:33,42.805,6.029,CST-1368DR,5151,6910,14357,0.336,551
2021-10-14T10:47:35,42.805,6.029,CST-1368DR,5151,6910,14357,0.336,551
2021-10-14T10:50:36,42.805,6.029,CST-1368DR,5151,6909,14356,0.337,551
2021-10-14T10:53:38,42.805,6.029,CST-1368DR,5151,6910,14357,0.336,551
2021-10-14T10:56:39,42.805,6.029,CST-1368DR,5151,6907,14351,0.338,551
2021-10-14T10:59:41,42.805,6.029,CST-1368DR,5151,6910,14357,0.336,551
2021-10-14T11:02:43,42.805,6.029,CST-1368DR,5151,6910,14357,0.336,551
2021-10-14T11:05:44,42.805,6.029,CST-1368DR,5151,6910,14357,0.336,551
2021-10-14T11:08:46,42.805,6.029,CST-1368DR,5151,6910,14357,0.336,551
2021-10-14T11:11:47,42.805,6.029,CST-1368DR,5151,6909,14356,0.337,550
2021-10-14T11:14:49,42.805,6.029,CST-1368DR,5151,6909,14356,0.337,551
2021-10-14T11:17:50,42.805,6.029,CST-1368DR,5151,6909,14356,0.337,551
2021-10-14T11:20:52,42.805,6.029,CST-1368DR,5151,6910,14357,0.336,551
2021-10-14T11:23:54,42.805,6.029,CST-1368DR,5151,6910,14358,0.336,551
2021-10-14T11:26:55,42.805,6.029,CST-1368DR,5151,6909,14356,0.337,551
2021-10-14T11:29:57,42.805,6.029,CST-1368DR,5151,6910,14357,0.336,551
2021-10-14T11:32:58,42.805,6.029,CST-1368DR,5151,6910,14357,0.336,551
2021-10-14T11:36:00,42.805,6.029,CST-1368DR,5151,6908,14354,0.337,551
2021-10-14T11:39:01,42.805,6.029,CST-1368DR,5151,6909,14356,0.337,551
2021-10-14T11:42:03,42.805,6.029,CST-1368DR,5151,6910,14359,0.336,551
2021-10-14T11:45:05,42.805,6.029,CST-1368DR,5151,6909,14356,0.337,551
2021-10-14T11:48:06,42.805,6.029,CST-1368DR,5151,6909,14356,0.337,551
2021-10-14T11:51:08,42.805,6.029,CST-1368DR,5151,6909,14356,0.337,550
2021-10-14T11:54:09,42.805,6.029,CST-1368DR,5151,6909,14356,0.337,551
2021-10-14T11:57:11,42.805,6.029,CST-1368DR,5151,6909,14355,0.337,551
2021-10-14T12:00:13,42.805,6.029,CST-1368DR,5151,6909,14355,0.337,551
2021-10-14T12:03:14,42.805,6.029,CST-1368DR,5151,6908,14354,0.337,551
2021-10-14T12:06:16,42.805,6.029,CST-1368DR,5151,6910,14357,0.336,551
2021-10-14T12:09:17,42.805,6.029,CST-1368DR,5151,6909,14355,0.337,550
2021-10-14T12:12:19,42.805,6.029,CST-1368DR,5151,6910,14357,0.336,551
2021-10-14T12:15:20,42.805,6.029,CST-1368DR,5151,6909,14355,0.337,550
2021-10-14T12:18:22,42.805,6.029,CST-1368DR,5151,6908,14354,0.337,551
2021-10-14T12:21:24,42.805,6.029,CST-1368DR,5151,6910,14357,0.336,551
2021-10-14T12:24:25,42.805,6.029,CST-1368DR,5151,6910,14357,0.336,551
2021-10-14T12:27:27,42.805,6.029,CST-1368DR,5151,6910,14357,0.336,551
2021-10-14T12:30:28,42.805,6.029,CST-1368DR,5151,6907,14352,0.338,551
2021-10-14T12:33:30,42.805,6.029,CST-1368DR,5151,6909,14356,0.337,551
2021-10-14T12:36:32,42.805,6.029,CST-1368DR,5151,6909,14356,0.337,551
2021-10-14T12:39:33,42.805,6.029,CST-1368DR,5151,6909,14356,0.337,551
2021-10-14T12:42:35,42.805,6.029,CST-1368DR,5151,6910,14357,0.336,551
2021-10-14T12:45:36,42.805,6.029,CST-1368DR,5151,6909,14355,0.337,551
2021-10-14T12:48:38,42.805,6.029,CST-1368DR,5151,6909,14356,0.337,551
2021-10-14T12:51:39,42.805,6.029,CST-1368DR,5151,6910,14357,0.336,551
2021-10-14T12:54:41,42.805,6.029,CST-1368DR,5151,6909,14356,0.337,551
2021-10-14T12:57:43,42.805,6.029,CST-1368DR,5151,6908,14354,0.337,551
2021-10-14T13:00:44,42.805,6.029,CST-1368DR,5151,6909,14356,0.337,551
2021-10-14T13:03:46,42.805,6.029,CST-1368DR,5151,6909,14356,0.337,551
2021-10-14T13:06:47,42.805,6.029,CST-1368DR,5151,6909,14355,0.337,551
2021-10-14T13:09:49,42.805,6.029,CST-1368DR,5151,6909,14356,0.337,551
2021-10-14T13:12:50,42.805,6.029,CST-1368DR,5151,6909,14356,0.337,551
2021-10-14T13:15:52,42.805,6.029,CST-1368DR,5151,6909,14355,0.337,551
2021-10-14T13:18:54,42.805,6.029,CST-1368DR,5151,6909,14355,0.337,551
2021-10-14T13:21:55,42.805,6.029,CST-1368DR,5151,6909,14356,0.337,551
2021-10-14T13:24:57,42.805,6.029,CST-1368DR,5151,6909,14355,0.337,551
2021-10-14T13:27:58,42.805,6.029,CST-1368DR,5151,6907,14352,0.338,551
2021-10-14T13:31:00,42.805,6.029,CST-1368DR,5151,6909,14355,0.337,551
2021-10-14T13:34:02,42.805,6.029,CST-1368DR,5151,6908,14354,0.337,551
2021-10-14T13:37:03,42.805,6.029,CST-1368DR,5151,6908,14353,0.337,551
2021-10-14T13:40:05,42.805,6.029,CST-1368DR,5151,6906,14350,0.338,550
2021-10-14T13:43:06,42.805,6.029,CST-1368DR,5151,6908,14353,0.337,551
2021-10-14T13:46:08,42.805,6.029,CST-1368DR,5151,6907,14352,0.338,551
2021-10-14T13:49:09,42.805,6.029,CST-1368DR,5151,6906,14350,0.338,551
2021-10-14T13:52:11,42.805,6.029,CST-1368DR,5151,6908,14353,0.337,551
2021-10-14T13:55:13,42.805,6.029,CST-1368DR,5151,6908,14353,0.337,551
2021-10-14T13:58:14,42.805,6.029,CST-1368DR,5151,6907,14352,0.338,551
2021-10-14T14:01:16,42.805,6.029,CST-1368DR,5151,6909,14355,0.337,551
2021-10-14T14:04:17,42.805,6.029,CST-1368DR,5151,6909,14355,0.337,551
2021-10-14T14:07:19,42.805,6.029,CST-1368DR,5151,6908,14354,0.337,551
2021-10-14T14:10:21,42.805,6.029,CST-1368DR,5151,6907,14352,0.338,551
2021-10-14T14:13:22,42.805,6.029,CST-1368DR,5151,6909,14355,0.337,551
2021-10-14T14:16:24,42.805,6.029,CST-1368DR,5151,6905,14348,0.339,551
2021-10-14T14:19:25,42.805,6.029,CST-1368DR,5151,6909,14355,0.337,551
2021-10-14T14:22:27,42.805,6.029,CST-1368DR,5151,6909,14355,0.337,550
2021-10-14T14:25:28,42.805,6.029,CST-1368DR,5151,6908,14353,0.337,551
2021-10-14T14:28:30,42.805,6.029,CST-1368DR,5151,6909,14356,0.337,551
2021-10-14T14:31:32,42.805,6.029,CST-1368DR,5151,6909,14355,0.337,551
2021-10-14T14:34:33,42.805,6.029,CST-1368DR,5151,6908,14353,0.337,551
2021-10-14T14:37:35,42.805,6.029,CST-1368DR,5151,6908,14354,0.337,551
2021-10-14T14:40:36,42.805,6.029,CST-1368DR,5151,6908,14353,0.337,550
2021-10-14T14:43:38,42.805,6.029,CST-1368DR,5151,6909,14355,0.337,551
2021-10-14T14:46:39,42.805,6.029,CST-1368DR,5151,6908,14354,0.337,551
2021-10-14T14:49:41,42.805,6.029,CST-1368DR,5150,6908,14355,0.337,551
2021-10-14T14:52:43,42.805,6.029,CST-1368DR,5150,6908,14357,0.336,551
2021-10-14T14:55:44,42.805,6.029,CST-1368DR,5150,6909,14358,0.336,551
2021-10-14T14:58:46,42.805,6.029,CST-1368DR,5150,6908,14357,0.336,551
2021-10-14T15:01:47,42.805,6.029,CST-1368DR,5150,6908,14355,0.337,551
2021-10-14T15:04:49,42.805,6.029,CST-1368DR,5150,6908,14357,0.336,551
2021-10-14T15:07:51,42.805,6.029,CST-1368DR,5150,6908,14356,0.337,551
2021-10-14T15:10:52,42.805,6.029,CST-1368DR,5150,6908,14355,0.337,551
2021-10-14T15:13:54,42.805,6.029,CST-1368DR,5150,6907,14354,0.337,551
2021-10-14T15:16:55,42.805,6.029,CST-1368DR,5150,6907,14355,0.337,551
2021-10-14T15:19:57,42.805,6.029,CST-1368DR,5150,6907,14354,0.337,551
2021-10-14T15:22:58,42.805,6.029,CST-1368DR,5150,6907,14355,0.337,551
2021-10-14T15:26:00,42.805,6.029,CST-1368DR,5150,6906,14353,0.337,551
2021-10-14T15:29:02,42.805,6.029,CST-1368DR,5150,6907,14355,0.337,551
2021-10-14T15:32:03,42.805,6.029,CST-1368DR,5150,6907,14354,0.337,551
2021-10-14T15:35:05,42.805,6.029,CST-1368DR,5150,6906,14353,0.337,551
2021-10-14T15:38:06,42.805,6.029,CST-1368DR,5150,6908,14356,0.337,551
2021-10-14T15:41:08,42.805,6.029,CST-1368DR,5150,6905,14350,0.338,551
2021-10-14T15:44:10,42.805,6.029,CST-1368DR,5150,6905,14350,0.338,551
2021-10-14T15:47:11,42.805,6.029,CST-1368DR,5150,6906,14351,0.338,551
2021-10-14T15:50:13,42.805,6.029,CST-1368DR,5150,6907,14354,0.337,551
2021-10-14T15:53:14,42.805,6.029,CST-1368DR,5150,6907,14353,0.337,551
2021-10-14T15:56:16,42.805,6.029,CST-1368DR,5150,6906,14353,0.337,551
2021-10-14T15:59:17,42.805,6.029,CST-1368DR,5150,6906,14352,0.338,551
2021-10-14T16:02:19,42.805,6.029,CST-1368DR,5150,6907,14355,0.337,551
2021-10-14T16:05:21,42.805,6.029,CST-1368DR,5150,6907,14354,0.337,551
2021-10-14T16:08:22,42.805,6.029,CST-1368DR,5150,6907,14354,0.337,550
2021-10-14T16:11:24,42.805,6.029,CST-1368DR,5150,6906,14351,0.338,551
2021-10-14T16:14:25,42.805,6.029,CST-1368DR,5150,6905,14350,0.338,551
2021-10-14T16:17:27,42.805,6.029,CST-1368DR,5150,6906,14353,0.337,551
2021-10-14T16:20:28,42.805,6.029,CST-1368DR,5150,6908,14356,0.337,551
2021-10-14T16:23:30,42.805,6.029,CST-1368DR,5150,6907,14355,0.337,551
2021-10-14T16:26:32,42.805,6.029,CST-1368DR,5149,6904,14351,0.338,551
2021-10-14T16:29:33,42.805,6.029,CST-1368DR,5149,6904,14350,0.338,550
2021-10-14T16:32:35,42.805,6.029,CST-1368DR,5149,6904,14351,0.338,551
2021-10-14T16:35:36,42.805,6.029,CST-1368DR,5149,6903,14349,0.338,551
2021-10-14T16:38:38,42.805,6.029,CST-1368DR,5149,6896,14334,0.343,551
2021-10-14T16:41:40,42.805,6.029,CST-1368DR,5149,6905,14353,0.337,551
2021-10-14T16:44:41,42.805,6.029,CST-1368DR,5149,6904,14351,0.338,551
2021-10-14T16:47:43,42.805,6.029,CST-1368DR,5149,6905,14353,0.337,551
2021-10-14T16:50:44,42.805,6.029,CST-1368DR,5149,6904,14350,0.338,551
2021-10-14T16:53:46,42.805,6.029,CST-1368DR,5149,6904,14351,0.338,551